User: anonymous   Login
Location: Unspecified
(0.0000°N, 0.0000°E)
Time: 16:36:59
(UTC+01:00)
Language:

ATLAS V CENTAUR R/B - Orbit

View from above orbital plane
View from above orbital plane
View from above satellite
View from above satellite

Ground track
Ground track

The orbit data is extracted from the following two-line orbital elements,

1 27500U 02038B   16034.97694239  .00019342  00000-0  21967-2 0  9996
2 27500  18.1449 327.3401 6857440 178.2366 187.0700  2.85082657111380
Epoch (UTC): 03 February 2016 23:26:47
Eccentricity: 0.6857440
inclination: 18.1449°
perigee height: 224 km
apogee height: 29038 km
right ascension of ascending node: 327.3401°
argument of perigee: 178.2366°
revolutions per day: 2.85082657
mean anomaly at epoch: 187.0700°
orbit number at epoch: 11138

The dashed part of the orbit path shows where the satellite is in the earth's shadow,  

DLR